Regional Weather Roundup
Issued by NWS State College, PA

Home | Current Version | Previous Version | Text Only | Print | Product List | Glossary Off
Versions: 1 2 3 4 5 6 7 8 9 10 11 12 13 14 15 16 17 18 19 20 21 22 23 24 25 26 27 28 29 30 31 32 33 34 35 36 37 38 39 40 41 42 43 44 45 46 47 48 49 50

000
ASUS41 KCTP 301303
RWRCTP

REGIONAL WEATHER ROUNDUP
NATIONAL WEATHER SERVICE STATE COLLEGE PA
900 AM EDT THU MAR 30 2017

Note: "fair" indicates few or no clouds below 12,000 feet with no
significant weather and/or obstructions to visibility.

* = STATION THAT DOES NOT REPORT PRECIPITATION /E.G. RAIN...SNOW...ETC/
    THUNDER OR FOG.

PAZ002>004-007>009-013>016-020>023-029>032-301400-
WESTERN PENNSYLVANIA

CITY           SKY/WX    TMP DP  RH WIND       PRES   REMARKS
ERIE           LGT RAIN  41  29  62 VRB7      30.06F
MEADVILLE      CLOUDY    41  28  60 E9        30.04F
FRANKLIN*      CLOUDY    37  25  60 E14G21    30.07F
NEW CASTLE     CLOUDY    44  29  55 SE12G18   30.04F
BEAVER COUNTY  DRIZZLE   43  28  56 SE12G21   30.03F
BUTLER*        CLOUDY    43  28  56 E18G25    30.07F
PITTSBURGH INT CLOUDY    45  31  58 E16       30.03F
PITTSBURGH     PTSUNNY   46  29  51 E12       30.04F
INDIANA*       CLOUDY    41  28  60 SE14      30.14F
LATROBE        CLOUDY    45  27  49 SE9G20    30.08F
WASHINGTON CO* CLOUDY    46  30  53 E8        30.04S
$$

PAZ004>006-010>012-017>019-024>028-033>037-041-042-045-046-049>053-301400-
CENTRAL PENNSYLVANIA

CITY           SKY/WX    TMP DP  RH WIND       PRES   REMARKS
BRADFORD       CLOUDY    34  22  61 SE15G22   30.12F
DUBOIS         CLOUDY    36  21  54 SE15      30.13F
CLEARFIELD     CLOUDY    37  26  64 E8        30.19F
JOHNSTOWN      CLOUDY    37  26  64 E6        30.11F
ALTOONA        CLOUDY    39  27  62 E6        30.19F
STATE COLLEGE  CLOUDY    37  25  60 E6        30.21F
WILLIAMSPORT   CLOUDY    39  26  59 CALM      30.26S
SELINSGROVE    CLOUDY    39  26  59 CALM      30.27F
FT INDIANTOWN  CLOUDY    39  24  54 E5        30.25F
CAPITAL CITY   MOSUNNY   43  25  49 E5        30.26F
HARRISBURG     CLOUDY    43  26  51 VRB6      30.26F
YORK           PTSUNNY   40  28  62 E6        30.25F
$$

PAZ038>040-043-044-047-048-054-055-060>062-067>071-301400-
EASTERN PENNSYLVANIA

CITY           SKY/WX    TMP DP  RH WIND       PRES   REMARKS
SCRANTON       CLOUDY    36  24  62 CALM      30.24S
MOUNT POCONO   CLOUDY    33  20  58 CALM      30.19R
ALLENTOWN      CLOUDY    40  25  55 W3        30.28S
QUAKERTOWN*    CLOUDY    39  25  56 CALM      30.28S
READING        CLOUDY    41  28  60 N3        30.27F
LANCASTER      PTSUNNY   41  28  60 E7        30.26F
COATESVILLE    CLOUDY    39  25  56 NE5       30.28S
POTTSTOWN      MOSUNNY   39  24  55 NE6       30.29R
BLUE BELL      CLOUDY    39  27  60 CALM      30.28R
DOYLESTOWN     MOSUNNY   38  26  62 NW5       30.28R
WILLOW GROVE   NOT AVBL
NORTH PHILA    CLOUDY    42  25  50 CALM      30.30S
PHILADELPHIA   CLOUDY    43  23  45 VRB6      30.30R
$$



USA.gov is the U.S. government's official web portal to all federal, state and local government web resources and services.